Find GPS IIR-7

NORAD ID: 26690 Int'l Des: 2001-004 Owner: AFSMC Country: US Constellation: GPS operational
MEOCIRCULAR

实时位置

正在加载3D地球...

关于 GPS IIR-7

正在加载描述...

即将过境

Passes for default location (London). Set your location on the main map for personalized predictions.

高度历史

Loading altitude history...

两行轨道根数

1 26690U 01004A 26134.39806784 -.00000074 00000-0 00000-0 0 9991
2 26690 55.1941 33.9823 0003365 22.1301 99.0107 1.91587901182899
Epoch: May 14, 2026 • Age: 53 hours

当前状态

高度 21020.8 km
速度 3.81 km/s
星下点 -22.64°S, 136.22°E
发射日期 Jan 30, 2001
运行时间 25.2 years
类型 navigation

技术详情

分类 Payload
质量 1077.00 kg
干质量 910.00 kg
总质量 2032.00 kg
长度 1.50 m
直径 1.90 m
跨度 19.30 m
形状 Box + 2 Pan
制造商 LMMS
平台类型 Series 4000
阶段状态 In Orbit
所有者/国家 AFSMC/US

Most Searched